Flag for U.S.A. Weather past 2 weeks in Black Mountain, North Carolina, U.S.A.

Now
68 °F

Passing clouds.


Feels Like: 68 °F
Forecast: 64 / 85 °F
Wind: 6 mph from North

Location: Asheville Regional Airport

Current Time: Sep 3, 2015 at 7:36:38 AM

Latest Report: Sep 3, 2015 at 6:54 AM


Visibility: 10 mi

Pressure: 30.01 "Hg (27.56 "Hg at 729m altitude)

Humidity: 87%

Dew point: 64 °F

Location of Black MountainLocation

Historic Weather in Black Mountain — Graph

°F

Black Mountain temperature yesterday

Maximum temperature yesterday: 86 °F (at 1:54 PM)
Minimum temperature yesterday: 64 °F (at 6:54 AM)
Average temperature yesterday: 75 °F

Past Weeks' High & Low Weather Summary

 TemperatureHumidityPressure
High86 °F (Aug 24, 3:54 PM)96% (Aug 28, 6:54 AM)30.24 "Hg (Aug 28, 6:54 AM)
Low57 °F (Aug 28, 6:54 AM)34% (Aug 25, 5:54 PM)29.88 "Hg (Aug 24, 4:54 PM)
Average72 °F71%30.05 "Hg
* Reported Aug 19 6:54 AM — Sep 3 5:54 AM, Black Mountain, Weather by CustomWeather, © 2015

Note: Actual official high and low records may vary slightly from our data, if they occured in-between our weather recording intervals... More about our weather records

Advertising

Black Mountain weather history for previous 24 hours

 ConditionsComfort  
Time TempWeatherWind HumidityBarometerVisibility
5:54 AM
Thu, Sep 3
68 °FOvercast.5 mph90%29.99 "Hg10 mi
4:54 AM69 °FClear.6 mph87%29.98 "Hg10 mi
3:54 AM70 °FClear.7 mph84%29.98 "Hg10 mi
2:54 AM71 °FPassing clouds.No wind84%29.98 "Hg10 mi
1:54 AM71 °FPassing clouds.No wind87%30.00 "Hg10 mi
12:54 AM72 °FClear.5 mph87%30.01 "Hg10 mi
11:54 PM
Wed, Sep 2
73 °FPassing clouds.No wind84%30.02 "Hg10 mi
10:54 PM73 °FPassing clouds.No wind84%30.02 "Hg10 mi
9:54 PM74 °FPassing clouds.No wind82%30.02 "Hg10 mi
8:54 PM76 °FSunny.3 mph77%30.01 "Hg10 mi
7:54 PM77 °FOvercast.No wind77%30.01 "Hg10 mi
6:54 PM82 °FOvercast.5 mph58%30.00 "Hg10 mi
5:54 PM84 °FMostly cloudy.7 mph53%30.00 "Hg10 mi
4:54 PM85 °FPassing clouds.8 mph51%30.01 "Hg10 mi
3:54 PM84 °FPartly sunny.3 mph48%30.02 "Hg10 mi
2:54 PM86 °FSunny.3 mph43%30.04 "Hg10 mi
1:54 PM86 °FSunny.No wind43%30.06 "Hg10 mi
12:54 PM84 °FSunny.7 mph46%30.08 "Hg10 mi
11:54 AM83 °FSunny.5 mph53%30.10 "Hg10 mi
10:54 AM79 °FSunny.7 mph60%30.12 "Hg10 mi
9:54 AM75 °FSunny.6 mph71%30.13 "Hg10 mi
8:54 AM70 °FPassing clouds.5 mph81%30.14 "Hg10 mi
8:04 AM66 °FPartly sunny.No wind90%30.22 "Hg10 mi
7:54 AM65 °FPartly cloudy.No wind91%30.14 "Hg10 mi
Weather by CustomWeather, © 2015

See weather overviewHow to use our weather pages